Skip Page Navigation
NASA JPL Caltech
NASA Logo - Jet Propulsion Laboratory + View the NASA Portal
+ Center for Near-Earth Object Studies
JPL Home Earth Solar System Stars & Galaxies Technology
JPL Solar System Dynamics
BODIES ORBITS EPHEMERIDES TOOLS PHYSICAL DATA DISCOVERY FAQ SITE MAP
IMPORTANT: The SSD Announcement email list is now available. Major changes are coming in the near future, including possible hostname and/or URL changes. To be notified of such changes, subscribe to this email list.

Please visit this page for more details.


JPL Small-Body Database Browser
Search: [ help ]  
351448 (2005 JS118)
Classification: Main-belt Asteroid          SPK-ID: 2351448
Ephemeris | Orbit Diagram | Orbital Elements | Mission Design | Physical Parameters | Discovery Circumstances | Close-Approach Data ]

[ show orbit diagram ]
Orbital Elements at Epoch 2458600.5 (2019-Apr-27.0) TDB
Reference: JPL 10 (heliocentric ecliptic J2000)
 Element Value Uncertainty (1-sigma)   Units 
e .06072850461257455 7.2339e-08  
a 2.814029037193924 4.1423e-08 au
q 2.643137261828774 2.0764e-07 au
i 7.498350484655493 7.6805e-06 deg
node 104.606501370301 6.1514e-05 deg
peri 293.3350517675347 8.8376e-05 deg
M 187.826566365349 6.6826e-05 deg
tp 2459425.122021562566
(2021-Jul-29.62202156)
0.00032618 TDB
period 1724.214482429756
4.72
3.8071e-05
1.042e-07
d
yr
n .208790729731425 4.6102e-09 deg/d
Q 2.984920812559074 4.3939e-08 au
  Orbit Determination Parameters
   # obs. used (total)      95  
   data-arc span      6614 days (18.11 yr)  
   first obs. used      2001-05-24  
   last obs. used      2019-07-03  
   planetary ephem.      DE431  
   SB-pert. ephem.      SB431-N16  
   condition code      0  
   norm. resid. RMS      .57989  
   source      ORB  
   producer      Otto Matic  
   solution date      2019-Sep-24 06:37:13  

Additional Information
 Earth MOID = 1.66171 au 
 Jupiter MOID = 2.28922 au 
 T_jup = 3.305 
[ show covariance matrix ]

Ephemeris | Orbit Diagram | Orbital Elements | Mission Design | Physical Parameters | Discovery Circumstances | Close-Approach Data ]

Physical Parameter Table
Parameter Symbol Value Units Sigma Reference Notes
absolute magnitude H 16.7   n/a MPO434218  

351448 (2005 JS118)          Discovered 2005-May-10 by Spacewatch at Kitt Peak
Reference: 20130127/Numbers.arcLast Updated: 2013-01-31

[ show close-approach data ]
Alternate Designations
 2005 JS118 = 2009 DM102 
Ephemeris | Orbit Diagram | Orbital Elements | Mission Design | Physical Parameters | Discovery Circumstances | Close-Approach Data ]
ABOUT SSD CREDITS/AWARDS PRIVACY/COPYRIGHT GLOSSARY LINKS
FirstGov
(server date/time)  
NASA Home Page
Site Manager:   Ryan S. Park
Webmaster  Alan B. Chamberlin